Theta_e
350 350 349 347 345 342 342 343 342 341 339 338 337 335 336 335 335 337 337 337 336 336 338 339 339 339 340 342 343 344 344 343 343 345 346 345 345 344 338 328 327 331
350 350 350 349 347 344 343 342 343 342 340 339 337 336 336 335 335 336 336 336 337 337 337 338 339 339 340 341 342 342 343 343 343 343 344 345 344 343 341 332 326 327
350 351 350 349 348 345 343 343 343 343 341 340 338 337 336 336 335 335 335 335 337 337 337 338 338 339 339 340 341 342 342 341 342 342 342 343 343 342 342 340 334 329
350 350 350 349 347 345 343 344 344 344 342 340 339 337 337 336 334 334 334 334 337 338 338 337 338 339 339 340 340 341 341 341 341 342 341 341 342 342 342 342 341 337
351 350 351 350 348 347 345 343 343 343 342 340 340 339 338 336 334 332 331 333 335 338 338 338 337 338 338 338 339 340 340 340 340 341 342 341 341 341 342 342 341 341
351 351 351 350 349 348 345 342 340 340 341 340 340 340 340 338 335 332 331 332 335 336 337 337 337 338 338 338 338 338 338 339 340 340 341 341 341 340 341 341 340 340
351 351 351 350 350 349 347 344 341 340 340 340 340 340 339 339 335 332 331 333 335 335 337 337 337 338 339 339 338 338 338 338 339 340 340 339 340 341 340 340 340 339
351 351 351 351 350 350 348 346 343 341 339 340 340 338 338 338 335 332 331 333 335 336 336 336 337 338 339 340 340 338 338 338 337 337 337 337 337 337 338 339 339 338
351 351 351 351 351 350 349 347 345 342 340 340 338 337 337 337 335 332 331 333 334 336 336 335 334 335 336 339 340 339 339 337 337 336 336 336 336 335 335 336 337 336
351 351 351 351 350 350 349 347 346 344 342 340 338 337 337 335 334 333 331 333 334 335 336 335 334 333 334 335 337 339 339 338 337 336 334 334 335 335 335 335 336 336
352 352 351 351 351 349 349 348 346 345 343 340 339 338 335 334 333 333 332 333 334 334 335 334 333 333 334 334 335 336 337 337 336 335 335 334 334 334 334 335 336 335
352 352 352 351 351 350 349 348 346 345 343 340 338 336 335 333 333 332 331 332 332 333 333 332 332 333 333 334 334 334 334 334 334 334 334 334 334 334 335 334 335 334
352 352 352 352 351 350 349 348 346 345 343 340 338 336 335 334 333 332 331 331 331 332 331 331 331 332 333 334 334 334 334 334 333 333 333 334 334 333 334 334 334 335
352 352 351 351 351 350 349 348 347 344 343 340 338 336 335 335 333 333 331 331 331 331 330 331 332 332 332 333 333 334 334 334 333 333 333 333 333 333 334 334 334 335
352 352 352 352 351 350 350 348 346 345 343 340 338 336 335 335 334 334 333 331 331 331 331 332 333 332 332 331 332 333 333 332 333 333 333 333 333 333 334 335 335 335
353 352 352 352 352 351 350 349 348 346 344 341 338 336 335 334 334 334 334 332 331 331 331 331 332 331 331 331 331 331 332 332 332 333 333 333 333 334 335 334 335 335
353 353 352 352 352 352 351 351 350 348 346 343 340 338 336 335 335 335 334 333 332 332 331 332 331 330 330 331 330 332 332 333 333 333 334 334 335 335 335 335 336 336
353 353 353 353 352 353 352 352 351 350 348 346 343 340 338 336 336 335 335 334 334 333 333 332 331 330 331 330 331 331 332 333 335 336 337 337 337 337 338 337 339 339
353 353 353 353 353 354 354 354 353 352 350 348 346 343 341 339 337 336 336 335 335 335 334 333 332 332 332 331 331 332 333 334 336 337 338 339 339 339 339 339 340 341
354 354 353 354 355 355 355 355 355 354 352 351 350 347 345 341 339 337 337 337 336 336 335 334 334 333 333 333 333 333 334 336 337 339 340 341 342 342 341 342 342 343
354 354 354 355 356 357 357 357 357 356 355 354 352 350 348 345 341 339 338 338 337 338 338 336 335 334 335 334 334 335 337 339 340 341 342 344 344 344 344 344 344 346
354 355 356 357 358 358 358 358 359 358 357 356 355 353 352 350 347 344 340 339 338 339 339 339 336 336 337 337 337 339 341 342 343 343 344 344 344 345 345 346 346 347
355 357 358 359 359 360 359 360 360 359 359 358 357 356 355 354 352 348 345 343 342 340 340 339 337 338 339 340 341 343 345 345 344 345 345 346 345 345 346 347 348 349
357 359 359 360 361 361 361 360 361 361 361 360 360 359 359 357 355 352 350 347 345 342 340 339 338 339 341 341 343 345 346 346 346 347 347 347 347 348 348 349 351 352
358 360 361 361 362 362 362 362 362 362 362 362 362 362 360 359 358 356 354 351 348 345 343 341 340 341 342 342 344 346 347 348 348 348 348 349 349 350 351 352 353 354
360 362 362 362 363 363 362 363 363 363 363 363 362 363 362 361 360 358 357 355 352 350 348 344 342 341 342 343 345 347 348 349 349 350 350 351 351 351 352 353 354 355
Wind_Speed
39 38 37 36 36 36 35 34 34 34 34 33 31 28 26 25 23 22 22 22 22 21 20 20 20 19 19 18 17 16 15 14 13 12 11 11 10 10 10 11 14 16
40 39 38 36 36 36 36 35 34 34 34 34 32 29 27 25 25 24 23 22 22 22 21 21 21 21 20 19 19 18 17 16 14 13 12 12 11 11 10 10 12 14
41 41 40 38 37 36 36 35 34 34 34 34 33 31 29 27 26 25 24 23 23 23 22 23 23 22 21 20 20 19 19 17 16 14 13 13 12 12 11 10 11 12
42 41 40 39 38 37 36 35 35 34 34 35 34 32 30 28 26 25 24 24 23 23 22 23 24 23 22 22 21 21 20 19 18 16 16 15 14 13 13 12 12 12
42 42 41 40 38 37 36 36 36 35 35 35 34 33 31 29 27 26 25 25 24 23 23 23 24 24 24 23 23 23 22 21 20 19 18 17 16 15 15 15 15 14
43 42 42 41 39 38 37 36 35 34 34 35 35 34 32 30 29 27 26 25 25 23 23 24 24 25 25 24 24 24 23 22 21 20 20 19 18 17 17 17 18 17
44 43 42 42 41 40 38 36 35 35 34 34 35 35 33 31 30 28 27 27 26 25 24 24 24 24 25 25 25 24 24 23 23 22 22 21 20 19 19 19 20 19
43 42 42 42 42 41 40 38 37 35 33 33 35 35 35 33 31 30 29 29 28 27 26 25 25 24 24 25 25 25 25 24 24 23 23 22 22 21 21 21 21 21
42 42 41 42 42 42 41 39 37 35 34 34 34 35 36 35 33 31 31 31 31 29 28 27 26 26 26 26 27 27 26 25 25 24 24 24 24 23 22 22 23 23
43 42 42 42 42 42 41 39 38 36 35 35 35 35 36 35 34 33 33 33 33 32 30 29 28 27 27 28 28 28 28 27 27 26 26 25 25 25 24 24 24 25
44 43 42 42 42 41 41 40 38 37 36 36 35 35 35 35 35 35 35 35 35 34 32 31 29 29 29 29 29 29 29 28 28 28 28 27 27 26 26 26 26 26
44 43 43 42 42 41 41 40 39 38 37 36 36 36 35 35 35 35 36 37 36 35 34 33 32 31 30 30 30 30 30 30 30 30 30 29 29 28 27 27 27 27
44 43 42 42 41 41 40 40 40 39 37 36 36 36 36 36 36 36 37 37 37 36 35 35 34 33 33 32 31 30 30 30 30 30 30 31 30 30 29 29 28 28
44 42 41 40 40 39 39 39 39 39 38 36 36 36 37 37 37 36 37 37 38 37 36 36 36 36 35 34 33 32 31 31 30 30 30 30 30 30 30 30 30 29
44 43 42 41 40 39 39 39 39 39 38 36 36 36 36 36 36 37 37 37 38 38 38 37 37 37 36 35 35 34 34 33 32 32 31 31 31 31 31 31 31 31
46 45 43 42 40 39 38 39 39 39 38 38 37 36 36 36 36 36 37 38 38 38 38 38 39 38 37 36 35 35 35 35 34 33 33 32 32 32 32 32 32 32
46 45 44 43 41 40 39 40 39 39 39 39 38 37 36 36 36 37 37 37 38 38 38 39 39 38 37 36 36 35 35 35 35 34 34 34 33 34 34 33 33 33
45 44 44 43 41 40 39 39 39 40 40 40 39 39 37 37 37 37 38 38 38 39 39 39 39 38 37 36 36 35 35 35 36 35 36 35 35 35 35 34 35 35
45 44 44 43 42 41 39 39 40 41 41 40 40 39 39 39 38 38 38 38 39 40 40 39 39 37 37 36 36 35 35 36 36 37 37 37 36 36 35 35 35 36
44 44 43 42 41 40 40 40 40 40 41 41 40 40 40 40 39 39 39 39 39 40 40 40 39 38 37 37 37 36 36 36 36 37 38 38 38 37 37 36 36 36
43 42 42 41 40 40 40 39 39 39 40 40 40 40 39 39 39 39 39 39 39 39 40 41 40 39 38 38 37 37 37 37 37 37 38 38 38 38 38 37 36 37
41 41 40 39 39 39 39 38 37 37 38 38 39 39 39 38 39 39 39 39 39 39 40 41 39 39 39 39 38 38 38 38 38 37 38 38 38 37 37 37 36 37
40 39 38 38 38 38 38 36 34 34 35 35 37 38 38 38 38 38 38 39 39 39 39 39 38 38 39 39 39 39 39 38 38 38 37 37 37 36 35 36 35 36
38 38 37 37 37 37 35 33 32 32 32 32 33 34 34 34 34 35 36 38 38 38 38 38 38 38 38 38 38 38 38 38 37 37 37 37 36 35 34 35 35 35
38 37 37 37 36 35 33 31 30 30 29 29 30 31 31 30 31 33 34 35 36 37 37 38 38 37 37 37 37 37 37 36 36 37 38 37 36 35 34 34 34 34
38 38 37 36 36 34 32 30 29 29 29 30 30 30 30 30 31 32 32 32 33 35 36 36 36 36 36 35 35 35 35 35 35 36 36 35 34 34 34 34 34 33
Wind_Direction
225 225 225 226 226 227 227 227 226 227 229 229 229 230 229 228 227 223 221 222 223 224 226 229 231 232 233 233 235 236 237 237 237 237 239 243 246 252 257 250 242 241
227 227 228 229 229 228 228 228 228 228 230 230 231 232 231 231 232 229 224 221 221 223 226 229 231 232 233 235 237 238 240 239 237 237 239 241 243 245 251 253 247 245
227 229 230 231 231 230 229 229 229 230 231 232 232 232 232 232 233 233 229 223 221 222 225 228 231 232 233 235 237 240 243 243 241 240 241 242 242 242 245 249 251 250
228 229 231 233 233 233 232 232 231 231 232 232 232 232 232 232 233 235 233 227 222 221 222 226 229 231 233 234 236 238 241 244 244 244 243 242 241 241 243 246 250 252
229 231 232 234 235 234 234 234 233 232 232 232 231 231 231 231 232 234 234 229 224 221 221 223 227 231 233 234 235 238 240 242 243 244 244 242 240 239 241 245 249 251
230 231 233 234 235 235 234 233 232 232 232 232 232 231 231 231 232 233 233 229 225 222 220 221 224 228 232 234 236 238 240 242 243 244 245 244 243 241 240 242 246 249
231 232 233 234 235 235 235 234 233 233 233 234 233 233 232 232 232 231 230 229 227 224 221 221 222 225 229 234 236 238 240 242 244 245 246 246 246 245 243 243 245 248
232 233 234 235 235 235 235 234 234 233 234 234 234 234 234 234 234 232 230 229 229 227 224 223 223 225 228 232 235 238 240 241 243 245 246 248 248 247 246 246 247 249
232 233 234 235 235 235 235 235 234 233 233 234 233 233 234 235 235 234 231 230 230 230 228 227 227 227 229 231 234 237 239 241 243 245 247 248 250 250 250 250 252 253
231 232 233 234 235 236 236 235 234 234 234 234 234 234 234 235 235 235 233 232 232 232 231 230 230 230 231 232 234 237 239 242 244 246 249 250 251 253 254 254 256 258
231 232 233 234 235 236 236 236 236 236 235 235 234 234 234 234 234 234 233 232 232 232 233 233 233 233 234 235 235 237 239 241 244 246 249 250 252 254 256 257 259 260
231 232 233 234 235 236 237 237 236 236 236 235 234 233 233 233 234 234 234 233 233 233 234 236 236 237 238 238 238 239 240 242 244 246 248 250 252 253 255 258 260 261
231 233 234 235 237 237 238 237 237 237 237 236 235 234 233 233 233 234 234 235 235 235 236 237 239 240 241 242 242 242 243 244 245 247 248 249 250 252 254 256 258 260
232 233 235 236 238 239 239 239 239 238 238 238 237 237 235 234 234 234 235 236 237 238 239 240 241 242 243 243 244 244 245 246 247 249 250 251 251 252 253 255 257 259
231 232 233 235 237 238 239 240 239 239 239 239 239 239 239 237 236 236 236 237 238 239 240 242 243 243 243 243 244 245 246 248 250 251 253 254 255 255 256 257 258 259
229 231 232 233 235 237 239 239 239 239 239 239 240 240 240 240 239 239 239 238 239 239 241 242 243 243 244 244 244 246 247 250 251 253 254 256 257 258 259 260 260 262
230 231 232 234 235 237 239 239 239 239 239 239 239 239 240 241 241 241 241 241 241 242 242 243 243 244 244 245 246 247 248 250 253 255 257 258 260 261 262 264 265 266
232 233 233 235 236 238 239 240 240 240 240 239 239 239 239 240 241 241 242 242 244 245 245 246 246 246 246 247 248 249 250 252 254 256 259 260 262 264 266 268 270 271
233 234 235 235 237 238 240 241 240 240 240 240 240 240 241 241 241 242 243 243 244 245 247 248 248 248 249 249 250 251 252 254 256 258 260 262 264 267 269 271 272 274
234 235 236 237 238 239 240 241 242 242 242 242 242 242 242 242 243 243 244 244 245 246 248 249 250 251 252 252 253 254 255 256 257 259 261 263 266 268 270 272 274 275
234 235 237 238 239 239 240 242 243 244 244 244 244 244 244 245 245 246 246 246 246 247 249 250 251 252 253 254 255 256 257 258 259 261 262 264 266 268 270 273 274 276
234 235 236 238 238 239 240 241 243 245 245 245 245 246 247 247 247 248 248 248 249 249 250 252 252 253 255 256 257 258 259 260 261 262 264 265 267 268 270 273 274 275
234 235 236 237 238 238 239 241 243 244 245 245 245 246 247 247 248 249 249 250 250 251 252 253 254 255 256 258 259 259 260 261 262 263 264 266 268 269 270 272 274 275
235 236 237 237 238 238 240 241 243 244 245 245 245 246 248 249 250 251 251 252 252 252 253 255 256 258 259 260 261 261 261 262 263 264 266 267 269 270 271 272 273 275
236 237 238 238 239 240 241 242 243 244 245 245 246 247 249 250 251 252 252 253 254 254 255 256 258 259 260 261 262 262 262 264 265 265 267 268 269 271 272 273 275 277
239 238 239 240 241 242 244 244 244 245 245 245 246 247 249 250 250 251 253 254 255 256 257 258 259 260 260 261 262 263 263 264 265 266 267 269 271 273 274 276 277 279